Regional Weather Roundup
Issued by NWS

Home | Current Version | Previous Version | Text Only | Print | Product List | Glossary Off
Versions: 1 2 3 4 5 6 7 8 9 10 11 12 13 14 15 16 17 18 19 20 21 22 23 24 25 26 27 28 29 30 31 32 33 34 35 36 37 38 39 40 41 42 43 44 45 46 47 48 49 50

615
ASUS43 KFSD 170210
RWRSD

WEATHER ROUNDUP FOR SOUTH DAKOTA
NATIONAL WEATHER SERVICE SIOUX FALLS SD
900 PM CDT WED AUG 16 2017

NOTE: "FAIR" INDICATES FEW OR NO CLOUDS BELOW 12,000 FEET WITH NO
SIGNIFICANT WEATHER AND/OR OBSTRUCTIONS TO VISIBILITY.


SDZ001>005-009-010-012>017-170300-
NORTHWEST AND NORTH CENTRAL SOUTH DAKOTA

CITY           SKY/WX    TMP DP  RH WIND       PRES   REMARKS
BUFFALO          N/A     73  51  46 E7        29.88F
FAITH            N/A     70  49  47 CALM      29.94
MOBRIDGE       CLOUDY    67  61  81 N3        29.86S
$$

SDZ012>016-024>037-041>051-057-063-072>074-170300-
SOUTHWEST AND SOUTH CENTRAL SOUTH DAKOTA

CITY           SKY/WX    TMP DP  RH WIND       PRES   REMARKS
RAPID CTY ARPT CLEAR     68  50  52 E7        29.98S
PIERRE         PTCLDY    65  56  72 NW9       29.88S
CUSTER         CLEAR     61  46  57 E5        30.12S
ELLSWORTH AFB  CLEAR     72  51  47 SE3       29.98S
PHILIP         CLEAR     68  49  50 E5        29.93S
PINE RIDGE     CLEAR     68  52  56 CALM      30.00S
SPEARFISH      FAIR      66  48  52 SE6       30.01F
WINNER         FAIR      66  61  84 NW9       29.91S
$$

SDZ004>011-016>023-039-040-170300-
NORTHEAST SOUTH DAKOTA

CITY           SKY/WX    TMP DP  RH WIND       PRES   REMARKS
ABERDEEN       CLOUDY    66  66 100 N9        29.82S
WATERTOWN      LGT RAIN  65  65 100 N12       29.75S
BROOKINGS      RAIN      64  63  96 NW10      29.72R
SISSETON         N/A     67  66  97 N15       29.75F
$$

SDZ017-020-022-023-036>040-048>070-170300-
SOUTHEAST SOUTH DAKOTA

CITY           SKY/WX    TMP DP  RH WIND       PRES   REMARKS
SIOUX FALLS    LGT RAIN  67  67 100 NW7       29.73R
HURON          CLOUDY    67  66  97 NW13      29.78S
CHAMBERLAIN    MOCLDY    67  65  93 W10       29.87R
MITCHELL       LGT RAIN  67  66  97 W12       29.79R
YANKTON        CLOUDY    66  64  93 W17       29.79S
$$

ABBREVIATIONS USED IN REMARKS
   TC - TEMPERATURE IN CELSIUS
  WCI - WIND CHILL INDEX
   HX - HEAT INDEX
  VSB - VISIBILITY





USA.gov is the U.S. government's official web portal to all federal, state and local government web resources and services.